Theta_e
327 329 322 320 325 326 327 328 328 328 327 327 330 332 333 333 334 334 332 332 332 331 330 331 331 331 331 330 330 329 329 330 330 331 331 330 330 330 330 330 331 332 332 332 332 333 332 332 333 333 333 333 333 331 330 329 327 325 324 323 322 322 322 322 322 321 320 320 320 318 316 313 315 322 325 326 331 334 333 333 334 335 335 335 336
320 320 318 322 326 326 325 324 324 325 326 327 330 333 334 334 333 333 333 332 332 332 331 331 332 332 332 331 330 329 329 329 330 330 331 330 329 329 329 330 330 331 331 333 333 332 332 331 332 332 333 333 334 334 333 332 330 328 327 324 323 322 321 321 322 322 322 322 323 323 320 315 311 313 317 321 331 336 336 334 333 334 333 334 336
317 315 316 324 327 323 320 319 320 321 324 327 330 331 332 331 330 330 331 329 330 331 330 330 331 330 330 330 329 329 329 330 331 330 330 329 328 328 328 329 330 330 331 332 332 332 332 331 331 331 332 332 333 334 333 333 332 331 330 328 327 325 324 323 322 322 322 323 324 326 325 318 310 309 311 318 331 336 335 337 336 335 333 332 334
316 315 315 322 323 318 314 315 317 318 320 323 324 324 324 323 323 323 324 324 325 325 324 324 324 326 327 328 328 328 328 328 328 328 327 327 327 328 328 328 328 329 329 330 331 332 332 332 333 332 332 332 333 333 332 332 332 332 332 330 329 328 327 327 325 323 322 323 325 328 327 323 316 313 313 313 322 329 331 336 338 336 335 331 331
317 316 315 318 318 314 313 313 314 315 315 316 317 316 316 316 316 316 317 318 318 318 318 318 319 321 322 324 325 325 326 326 326 326 326 326 327 328 329 328 328 328 328 329 330 331 331 331 332 331 332 332 331 331 331 332 332 332 332 331 330 329 329 329 327 325 324 322 323 327 328 328 324 322 322 317 315 319 326 332 336 336 335 333 330
317 316 316 316 315 314 313 314 313 313 313 314 314 313 313 313 314 314 314 314 314 315 315 315 316 317 317 319 320 321 323 323 323 322 322 323 324 325 326 325 327 328 328 329 330 330 329 329 330 329 329 329 329 330 331 332 332 331 331 331 330 329 329 329 328 328 326 324 321 322 325 328 328 328 328 327 322 318 319 322 328 333 334 334 332
316 315 315 314 314 314 313 314 314 314 314 314 314 313 314 313 313 313 313 313 313 313 313 313 313 314 314 316 317 318 319 319 319 318 317 318 318 319 320 321 323 325 327 329 330 330 329 328 328 329 328 328 329 329 330 331 330 330 330 330 330 329 329 329 329 329 328 326 323 321 321 322 327 331 330 330 330 326 321 319 320 323 325 330 332
314 315 314 314 314 314 314 314 314 314 313 313 312 312 312 312 312 312 312 312 312 312 312 312 312 312 312 313 314 314 315 315 315 314 314 314 314 315 316 317 318 319 321 323 324 325 326 327 327 328 328 329 329 329 330 330 330 329 329 329 329 330 330 331 331 331 330 329 327 325 322 320 322 327 330 331 331 329 325 323 321 317 316 318 322
315 315 313 314 313 314 314 314 314 313 312 311 311 310 310 310 310 310 310 310 310 310 310 310 311 311 311 311 311 311 311 311 311 311 311 311 312 312 312 312 313 313 314 314 315 316 318 320 321 323 324 326 327 328 329 329 329 329 329 330 330 330 330 331 331 331 332 332 331 329 327 324 321 321 325 328 328 326 322 323 324 323 321 317 316
315 315 314 314 313 314 313 314 313 312 311 310 310 310 310 309 309 309 309 309 309 309 309 309 308 308 308 308 307 308 307 307 307 307 308 308 308 308 309 309 309 309 309 310 311 311 312 313 314 315 317 319 321 323 323 324 324 325 325 326 326 327 328 329 330 330 330 331 332 332 330 328 325 322 321 322 321 322 321 321 322 325 326 325 323
315 315 314 314 314 313 313 313 312 311 311 310 310 309 309 309 309 309 309 309 308 308 307 306 306 305 305 304 304 304 304 304 304 304 304 304 304 304 304 305 305 305 306 306 307 308 309 309 310 310 311 312 313 314 314 315 315 316 316 317 318 319 320 322 324 325 325 326 328 329 331 331 330 327 323 321 320 319 319 319 319 321 323 325 327
315 314 313 314 314 313 313 313 312 311 310 310 310 309 309 309 309 308 308 308 307 306 305 305 304 304 303 303 303 303 303 303 303 303 303 303 303 303 303 303 303 303 303 303 303 304 304 305 305 306 306 306 306 307 307 308 308 309 310 310 311 312 313 314 316 317 318 319 320 322 325 328 330 329 327 324 323 323 320 318 317 317 319 321 323
315 314 314 314 314 314 313 313 312 311 310 310 309 309 309 308 308 308 307 306 305 304 304 304 303 303 303 303 303 303 303 303 303 303 303 303 303 303 303 303 303 303 302 302 302 302 302 302 303 303 303 303 303 303 303 304 304 304 305 305 306 307 308 309 311 312 313 314 315 316 318 320 323 325 326 326 326 327 326 323 320 317 316 317 318
316 314 314 314 314 314 313 312 312 311 310 310 309 309 308 308 308 307 306 305 304 304 303 303 304 304 303 303 303 303 303 303 303 303 303 303 303 303 303 303 303 302 302 302 302 302 302 302 302 302 302 302 302 303 303 303 303 303 303 303 304 304 305 306 306 308 310 311 312 314 315 315 317 318 321 324 325 327 327 325 324 322 319 316 316
317 315 313 314 314 313 313 312 312 311 311 310 309 309 308 308 307 307 305 304 304 304 304 304 304 304 304 304 303 303 303 303 303 303 303 303 303 303 302 303 302 302 302 302 302 302 302 302 302 302 302 302 302 302 302 302 302 303 303 303 303 303 303 304 304 305 306 307 309 310 311 313 314 314 316 321 325 326 323 321 322 323 323 320 317
317 315 313 313 313 313 313 312 312 311 310 310 309 309 308 308 307 306 304 304 304 304 304 304 304 304 304 304 304 303 303 303 303 303 303 303 303 302 302 302 302 302 302 302 302 302 302 302 302 302 302 302 302 302 302 302 302 302 302 303 303 303 303 303 303 304 304 304 305 306 307 309 310 313 317 321 325 325 322 318 317 320 324 323 321
317 316 314 313 313 313 312 312 311 311 310 310 309 308 308 308 307 306 304 303 303 304 304 304 304 304 304 304 304 303 303 303 302 302 302 302 302 302 302 302 302 302 302 302 302 302 302 302 302 302 302 302 302 302 302 302 302 302 302 302 302 302 303 303 303 303 303 303 303 304 304 305 309 317 321 322 323 325 325 324 323 320 319 320 320
316 316 315 314 313 313 312 311 311 311 310 310 309 308 308 307 307 305 303 303 303 303 303 304 304 304 304 304 304 303 302 302 302 302 302 302 302 302 302 302 301 302 301 301 301 302 302 301 301 301 302 302 302 302 302 301 301 302 302 302 302 302 302 302 302 303 303 303 303 303 303 305 309 315 319 322 324 326 327 328 327 322 318 317 316
315 316 316 314 313 312 312 311 311 311 310 310 309 308 308 308 306 305 303 302 303 303 303 303 303 304 304 304 303 303 302 302 302 301 301 301 301 301 301 301 301 301 302 302 302 302 302 302 302 301 301 301 301 301 301 301 301 301 301 301 302 302 302 302 302 302 302 302 302 302 302 303 307 310 313 318 322 325 325 323 324 323 322 319 314
314 315 315 315 314 313 312 311 311 311 310 309 309 308 308 307 307 305 303 302 302 302 303 303 303 304 304 304 303 302 302 302 301 301 301 301 301 301 302 302 302 302 302 303 303 303 303 303 303 302 302 301 301 301 301 301 301 301 301 301 301 301 301 302 302 302 302 302 302 302 302 302 303 305 306 310 313 317 319 315 313 314 314 311 309
314 314 315 314 314 313 312 312 311 311 311 309 309 308 308 307 307 305 303 302 303 303 303 303 304 304 304 304 303 302 302 302 302 301 301 301 302 302 302 302 303 303 303 303 304 304 304 304 304 303 303 302 301 301 301 301 301 301 301 301 301 301 301 301 301 302 301 301 301 301 301 301 301 301 301 303 305 308 310 308 305 304 304 304 304
314 314 314 314 314 313 312 311 311 311 311 310 309 309 308 308 307 306 304 303 303 303 304 304 304 304 305 305 304 303 303 302 302 302 302 302 302 302 302 302 303 303 304 304 304 304 304 304 304 304 304 303 302 302 301 301 300 300 300 300 300 300 301 301 301 301 301 301 301 301 301 301 301 301 301 301 302 302 302 302 302 302 303 303 304
314 314 314 314 314 313 312 311 311 311 311 310 309 309 308 308 307 307 305 304 304 304 304 304 304 304 304 305 305 304 303 303 302 302 302 302 302 302 302 303 303 303 304 304 304 304 304 304 304 304 304 304 303 302 301 301 300 300 300 300 300 300 300 300 300 300 300 300 301 301 301 301 301 301 301 300 301 301 301 301 301 302 302 303 303
314 314 314 314 314 313 312 311 311 311 311 310 309 309 308 308 307 307 306 304 303 303 304 304 304 304 304 305 305 304 303 302 302 303 303 303 303 303 303 303 303 304 304 304 304 304 304 304 304 304 304 304 303 302 301 301 300 300 300 300 300 300 300 300 300 300 300 300 300 300 300 300 300 300 301 301 301 301 301 301 301 302 302 302 303
314 314 313 314 313 313 313 312 311 311 311 310 310 309 308 308 307 307 306 304 303 303 303 303 303 303 303 304 305 304 303 302 302 303 303 303 303 303 303 303 303 303 303 303 303 304 304 304 304 304 304 304 303 302 301 300 300 299 299 299 299 299 299 300 300 300 300 300 300 300 300 300 300 300 300 300 300 301 301 301 301 301 302 302 302
313 313 313 313 313 313 313 312 312 311 311 310 310 310 309 308 307 307 307 305 303 303 303 303 303 303 303 303 304 304 303 302 303 303 304 303 303 303 303 303 303 303 303 303 303 303 303 304 304 304 304 303 303 302 301 300 299 299 299 298 298 298 299 299 299 299 300 300 300 300 300 300 300 300 300 300 300 301 301 301 301 302 302 302 302
313 313 313 313 313 313 312 312 312 312 311 310 310 309 309 308 308 307 307 306 303 302 302 302 302 302 302 303 304 304 303 302 303 303 303 303 303 303 303 303 303 303 303 303 303 303 303 303 303 303 303 303 302 301 300 299 298 298 298 298 298 298 298 298 299 299 299 299 300 300 300 301 300 300 301 301 300 301 301 301 301 302 302 302 302
313 313 313 312 312 312 312 312 312 312 311 311 310 310 309 308 308 307 307 306 304 302 302 302 302 302 302 303 303 304 303 302 303 303 303 303 303 302 303 303 302 303 303 303 303 303 303 303 303 303 303 302 302 301 299 298 298 298 298 298 298 298 298 298 298 299 299 299 299 300 300 300 300 301 301 301 301 301 301 301 301 301 302 302 302
313 313 312 312 312 312 312 312 312 312 311 311 310 310 309 308 308 307 307 306 305 303 302 302 302 302 302 302 303 303 303 302 302 302 302 302 302 302 302 302 302 302 302 302 302 302 302 302 302 302 302 302 301 300 299 298 297 297 297 298 298 298 298 298 299 299 299 299 299 300 300 300 300 300 300 301 301 301 301 301 301 301 301 302 302
313 313 312 312 312 312 311 312 312 312 311 310 310 309 309 308 308 307 307 307 306 304 302 301 301 301 302 302 303 303 302 302 302 302 302 302 302 302 302 302 302 302 302 302 302 302 302 302 302 302 302 302 301 300 299 298 297 297 297 297 297 297 297 298 298 298 299 299 299 300 299 299 300 300 300 300 301 301 301 301 301 301 301 301 301
313 312 313 312 312 311 311 311 311 311 311 310 310 309 309 308 308 307 307 306 306 305 303 302 302 302 302 302 302 302 301 302 302 301 301 302 302 302 302 301 301 301 301 301 302 302 302 302 302 302 302 301 301 299 298 297 296 296 296 296 297 297 297 297 297 298 298 299 299 299 299 299 299 300 300 300 301 301 301 301 301 301 301 301 301
313 313 313 313 312 312 311 311 311 311 311 310 310 309 309 308 307 307 306 306 306 306 304 303 302 302 302 302 302 302 301 301 301 301 301 301 301 301 301 301 301 301 301 301 301 301 301 301 301 301 301 301 299 297 296 296 296 296 295 296 296 296 296 296 297 298 298 298 298 298 298 299 299 300 300 300 300 300 300 300 301 301 301 301 301
314 313 312 312 312 312 311 311 310 310 310 310 309 309 308 308 307 306 306 306 306 306 305 305 304 302 302 301 301 301 301 301 301 301 301 301 301 301 301 301 301 301 301 301 301 301 301 300 300 300 300 300 298 296 296 296 295 295 295 295 296 296 296 296 297 297 298 298 298 298 298 299 299 299 299 300 300 300 300 300 300 300 300 301 301
313 313 312 312 312 312 311 310 310 310 310 309 309 308 308 307 307 306 305 305 305 306 305 305 304 302 301 301 301 301 301 300 300 301 301 301 301 301 301 300 300 300 300 300 300 300 300 300 300 300 300 299 298 296 296 296 295 295 295 295 295 296 296 297 297 298 298 298 298 298 298 298 299 299 299 299 299 299 299 299 299 300 300 300 300
313 312 313 312 312 312 311 310 310 309 309 309 308 308 308 307 306 306 305 305 305 305 305 305 304 302 301 301 301 301 300 300 300 300 301 301 301 301 300 300 300 300 300 300 300 299 299 299 299 299 299 298 297 296 295 295 295 295 295 295 295 296 296 297 297 298 298 299 299 298 298 298 298 299 299 298 299 298 298 298 299 299 299 299 300
313 313 313 312 311 311 311 310 310 309 309 308 307 308 307 306 306 305 305 304 305 305 305 305 303 302 301 300 301 300 300 300 300 300 300 300 300 300 300 300 300 300 300 299 299 299 299 299 299 299 298 298 297 296 295 295 295 295 295 295 295 296 296 297 297 298 298 299 299 298 298 299 299 299 298 298 298 298 298 298 298 298 299 299 299
313 313 312 312 311 311 310 310 309 309 308 307 307 307 306 306 306 305 304 304 304 304 304 304 303 301 300 300 300 300 300 300 300 300 300 300 300 300 300 299 299 299 299 299 299 299 299 299 298 298 298 297 296 295 294 294 295 295 295 295 295 296 296 296 297 297 298 299 299 298 298 299 299 298 298 298 297 297 297 297 297 297 298 298 299
313 313 312 312 311 310 310 309 309 308 307 306 306 306 306 305 304 304 303 303 303 304 304 304 303 301 300 300 300 300 299 299 300 300 300 300 300 300 299 299 299 299 299 299 299 299 298 298 298 297 296 296 295 294 294 294 294 295 295 295 295 295 296 296 296 297 298 298 297 297 298 298 299 298 297 297 296 296 296 296 296 296 296 297 297
313 312 311 311 310 310 309 309 308 307 306 306 305 305 305 304 304 303 302 302 303 303 303 303 303 301 300 300 299 299 299 299 299 300 300 299 299 299 299 299 299 299 299 298 298 298 298 298 297 297 296 295 294 293 293 294 294 294 295 295 295 295 296 296 296 297 297 297 296 296 298 298 297 297 296 295 295 295 294 295 295 295 295 295 295
312 312 311 310 310 309 308 308 307 307 306 305 305 304 304 304 303 302 302 302 302 303 303 303 303 301 300 299 299 299 299 299 299 299 299 299 299 299 299 298 298 298 298 298 298 298 298 297 297 297 296 295 293 292 292 293 294 294 294 296 296 296 296 295 296 296 296 295 295 296 296 296 296 295 295 294 294 294 293 293 294 294 294 293 294
312 311 311 310 310 309 309 308 308 307 306 306 305 305 305 305 304 304 304 303 303 303 303 303 302 301 300 299 299 299 299 299 299 299 299 299 299 299 298 298 298 298 298 298 298 298 298 297 297 297 296 296 294 292 292 292 293 294 296 297 297 296 296 295 296 296 295 295 294 295 295 295 295 294 294 294 293 293 293 293 293 293 293 292 293
312 311 311 310 310 309 309 308 308 307 307 306 306 306 306 306 306 306 306 304 304 303 303 303 302 301 300 299 298 298 298 298 299 299 299 299 299 298 298 298 298 298 298 298 298 298 297 297 297 296 296 295 294 292 291 291 292 292 294 296 297 298 297 295 295 295 295 295 295 295 294 294 294 294 293 293 293 293 293 292 292 292 292 292 292
312 311 311 310 309 308 308 307 307 307 307 306 306 306 306 306 306 306 305 304 303 303 303 302 302 300 299 298 298 298 298 298 298 298 298 298 298 298 298 298 297 297 297 297 297 297 297 297 297 296 295 294 294 292 291 290 291 291 291 292 294 295 296 295 294 295 295 295 295 295 294 294 294 294 294 294 294 294 294 293 292 292 291 291 291
311 311 310 309 309 308 307 307 307 307 306 306 306 305 305 304 304 304 303 303 303 302 301 300 300 299 298 298 298 298 298 298 298 298 298 298 298 298 298 297 297 297 297 297 297 297 297 297 296 296 295 293 293 292 291 290 290 290 290 290 290 291 293 293 294 296 295 294 294 294 294 294 294 294 294 294 295 294 294 293 292 291 291 291 291
311 310 310 309 309 308 308 307 307 307 306 306 305 304 304 303 303 302 301 300 300 300 300 299 299 298 298 298 298 298 298 298 298 298 298 298 298 297 297 297 297 297 297 297 297 297 296 296 296 295 294 293 292 291 291 290 290 289 289 289 289 289 290 290 292 294 295 294 294 293 293 293 292 293 293 294 294 293 293 292 292 291 291 291 291
311 310 310 309 309 308 307 307 306 306 306 305 304 304 304 303 303 303 302 301 301 301 301 302 301 301 300 299 298 297 297 297 297 297 297 297 297 297 297 297 297 297 297 297 297 297 296 296 296 294 293 292 291 291 291 290 290 289 289 288 288 288 289 289 289 290 292 293 294 293 292 292 291 291 292 293 292 292 292 291 291 291 291 291 291
310 309 309 309 308 308 307 306 306 306 305 305 304 304 303 304 304 304 304 304 304 304 304 303 302 302 300 299 298 297 297 297 297 297 297 297 297 297 297 296 296 296 296 296 297 296 296 296 295 294 292 291 290 290 290 290 290 289 289 288 288 288 288 288 288 287 289 290 291 292 292 291 291 291 291 292 291 291 291 291 291 291 290 291 291
309 309 308 308 307 307 306 306 305 305 305 304 304 304 304 304 304 304 304 304 305 305 304 303 302 301 300 299 298 297 297 297 297 297 297 297 297 296 296 296 296 296 296 296 296 296 296 296 295 294 292 291 290 290 290 290 290 289 289 288 288 288 287 287 287 287 287 287 288 290 290 290 291 291 291 291 291 291 291 291 291 290 291 291 291
309 308 308 308 307 306 306 305 305 305 305 305 304 304 304 304 304 304 304 304 304 303 303 302 302 301 299 298 297 297 297 296 296 296 296 296 296 296 296 296 296 296 296 296 296 296 296 295 295 293 292 290 290 290 289 289 289 289 289 289 288 288 288 288 288 287 287 287 287 288 289 289 290 291 292 291 291 291 290 291 290 290 291 291 291
308 308 308 307 306 306 305 305 305 305 305 305 304 304 304 304 304 305 305 305 304 303 302 301 300 300 299 298 297 296 296 296 296 296 296 296 296 296 295 295 295 295 295 296 295 295 295 295 295 293 291 290 290 289 289 289 289 288 288 288 288 288 288 288 288 288 288 287 287 288 288 288 288 289 291 292 291 291 291 291 290 291 291 291 291
307 307 307 307 306 306 305 305 305 305 305 305 305 305 304 304 305 305 305 305 304 303 302 301 300 299 298 298 297 296 296 296 296 296 296 296 295 295 295 295 295 295 295 295 295 295 295 295 294 292 291 290 290 289 289 289 288 288 288 287 287 288 288 288 288 288 288 288 287 288 289 289 288 289 290 290 290 290 290 290 290 291 291 291 291
Wind_Speed
17 17 16 14 14 13 12 10 9 10 10 9 8 7 6 5 4 4 4 3 3 3 2 2 1 1 0 1 1 1 0 1 1 2 2 3 3 4 4 4 5 5 5 5 5 5 6 6 7 7 7 7 7 7 8 7 6 6 6 6 6 6 6 7 7 8 9 9 9 9 8 7 7 8 8 7 7 6 5 5 5 5 5 5 5
17 18 17 16 15 14 13 11 10 10 10 10 9 8 7 6 5 4 4 3 2 2 2 2 2 1 1 1 1 2 2 2 2 2 2 3 4 4 4 5 5 5 5 5 5 6 6 6 7 7 7 7 7 7 7 7 6 7 6 6 5 6 6 7 7 8 8 8 9 9 8 7 6 7 8 7 6 7 5 4 5 6 6 6 7
17 18 18 17 16 14 13 12 11 11 11 11 10 9 8 7 5 5 4 3 3 3 2 2 2 2 2 2 2 2 3 2 2 3 4 5 6 6 5 6 6 5 5 5 5 6 6 6 7 7 7 8 8 7 7 7 7 7 7 7 6 6 6 6 7 8 8 8 8 8 8 6 5 6 7 6 5 7 7 5 5 6 6 6 7
18 18 19 18 17 14 13 12 12 11 11 10 9 9 7 6 5 5 5 3 3 2 2 2 2 2 2 2 2 3 4 4 4 5 6 7 7 7 7 7 7 6 6 6 6 6 6 7 7 8 8 8 8 9 9 10 9 8 7 7 8 8 8 7 7 7 7 7 8 8 7 5 4 4 6 6 5 7 9 7 5 6 6 6 6
19 19 19 18 17 14 12 11 11 11 10 9 8 7 6 6 6 5 5 5 5 5 5 6 6 5 4 4 4 4 5 5 6 7 7 8 7 7 7 7 7 7 7 6 6 6 6 6 6 7 8 8 9 10 10 10 10 10 9 9 10 10 10 10 9 7 6 6 7 7 6 6 5 5 6 7 7 8 9 8 8 7 7 8 7
20 20 20 18 17 14 12 11 9 9 8 7 6 6 5 4 4 4 4 4 4 5 5 5 6 6 6 6 6 6 6 7 7 8 8 8 9 9 9 8 8 8 7 6 5 6 6 6 6 7 8 9 10 10 10 10 10 11 11 11 11 11 10 11 10 9 7 6 6 6 6 7 6 6 7 8 8 9 10 11 11 10 10 10 9
19 20 20 18 17 15 13 11 9 8 7 7 6 5 4 4 4 3 3 3 3 3 3 3 4 4 4 5 6 6 7 8 8 9 9 10 10 10 11 10 10 9 9 8 8 8 9 9 9 10 11 11 11 11 11 10 11 12 12 12 12 12 11 10 9 9 8 6 6 6 7 7 6 5 7 7 8 10 10 11 12 14 14 13 12
17 18 18 18 17 15 13 11 10 9 7 6 6 5 5 5 4 4 4 3 3 3 2 2 3 2 2 3 4 5 6 6 7 8 8 9 9 10 10 10 10 10 10 10 11 10 10 11 11 11 11 11 12 12 12 12 13 13 13 13 13 14 13 11 10 9 8 7 7 7 7 7 7 7 7 8 9 12 11 10 11 13 14 14 14
17 17 17 18 17 15 14 12 10 9 7 6 6 6 5 6 5 5 5 4 4 3 3 3 2 2 2 2 2 3 4 5 5 6 6 7 7 8 8 8 9 9 10 10 11 11 11 11 12 12 12 12 13 13 13 14 15 15 15 15 15 15 14 13 12 11 10 9 8 8 7 7 8 8 9 10 11 13 14 12 10 11 13 13 14
18 17 17 18 17 15 14 12 10 9 7 7 7 7 7 7 7 6 5 5 4 3 3 2 2 2 2 2 2 3 3 4 4 5 6 6 6 7 7 7 8 8 9 9 10 10 11 11 11 12 12 13 13 14 15 15 16 16 17 17 17 17 16 16 14 13 12 11 10 9 9 8 8 8 9 10 12 14 15 15 13 13 13 12 12
18 18 17 18 17 16 15 13 11 9 8 9 9 9 8 8 8 7 6 5 4 3 3 2 2 2 2 2 2 2 3 3 4 4 5 5 6 6 7 7 7 8 8 9 9 10 10 11 11 11 12 12 13 14 15 15 16 16 17 17 18 18 18 17 17 16 14 13 12 12 11 10 9 9 9 9 12 13 15 16 16 15 14 13 13
19 18 18 18 18 17 16 14 13 11 10 11 10 10 9 9 8 7 6 5 5 4 3 2 2 2 1 1 1 1 2 2 3 3 4 4 4 5 5 6 6 6 7 7 8 8 9 9 10 10 11 12 13 14 14 15 15 16 16 17 18 18 18 18 18 17 16 15 14 14 13 13 12 11 10 9 11 12 13 15 16 16 15 15 14
20 19 20 20 19 18 18 16 14 12 11 12 11 10 9 8 7 6 6 5 4 4 3 3 2 2 1 1 0 0 1 1 2 3 3 3 4 4 4 4 4 4 4 4 4 5 5 5 6 7 8 9 10 11 11 12 13 13 14 15 16 17 17 17 17 17 16 16 15 15 14 14 13 13 12 11 11 12 13 13 14 15 16 16 16
20 20 21 21 20 20 19 17 15 13 12 11 10 9 8 8 7 6 5 5 5 4 4 3 2 2 1 1 1 1 1 2 2 2 2 2 2 2 2 2 2 2 3 3 4 4 5 5 5 5 6 6 7 7 8 8 9 9 10 10 11 12 14 15 15 16 16 16 15 15 15 14 14 14 13 13 12 13 14 14 14 14 15 17 17
21 21 21 21 21 21 20 18 16 13 12 11 10 9 8 7 6 6 6 6 6 5 5 3 3 2 2 2 2 2 2 2 2 2 1 2 1 1 2 2 3 3 4 4 5 5 6 6 7 7 8 8 8 9 9 9 8 8 8 8 8 9 10 10 11 12 13 14 15 14 14 14 14 14 14 14 13 14 16 16 15 15 15 16 17
21 22 22 22 22 21 21 18 16 14 12 11 10 9 8 7 7 7 7 7 7 6 5 4 2 1 2 3 3 3 3 2 2 2 1 2 2 2 3 3 3 4 4 4 5 5 6 7 8 8 9 10 10 11 11 11 10 10 9 9 8 8 9 9 8 8 9 11 13 13 13 13 12 12 12 12 13 15 17 18 16 15 15 15 16
21 23 23 23 23 22 21 19 17 15 13 12 11 10 9 8 8 8 8 8 7 7 6 4 2 1 2 3 3 3 3 2 2 2 2 2 2 2 2 3 3 4 4 5 6 6 6 7 8 8 9 9 10 10 11 11 11 11 11 10 9 9 9 9 8 8 7 7 8 10 11 12 11 10 9 10 12 14 16 18 17 16 16 16 16
21 23 24 24 23 22 22 20 18 16 15 14 13 12 11 10 9 9 9 9 8 8 6 5 2 0 2 3 3 3 2 2 1 2 2 2 2 2 3 4 5 5 6 7 8 8 9 9 9 10 10 10 10 10 10 10 11 11 11 10 10 9 9 8 8 7 7 6 6 6 7 9 10 10 10 10 11 12 13 15 17 18 18 18 18
22 23 25 25 24 23 23 21 20 18 17 16 16 14 13 12 10 10 10 9 9 8 6 4 2 1 3 3 4 3 2 1 1 1 1 2 2 3 4 5 6 7 8 9 10 11 11 12 12 12 12 12 11 11 11 10 10 10 10 10 10 9 9 8 7 7 6 6 6 5 6 7 9 11 13 13 13 14 15 16 17 18 18 19 20
23 24 26 26 26 25 24 23 22 20 19 19 18 16 14 13 12 11 10 9 9 8 7 5 4 3 4 4 5 4 4 3 2 2 2 3 3 4 5 6 7 9 10 11 12 12 13 13 14 13 13 13 13 12 12 11 11 11 10 10 10 9 9 8 7 7 6 6 6 6 6 7 9 11 13 15 15 16 17 18 17 18 19 20 21
24 25 27 27 28 27 26 25 24 23 22 21 20 18 16 15 13 12 11 10 10 9 8 7 6 5 6 6 6 6 6 6 5 4 4 4 5 6 7 8 9 10 11 11 12 12 13 14 14 15 15 15 14 14 13 13 13 12 12 11 11 11 10 9 9 8 8 7 6 6 6 7 7 8 10 12 14 16 16 16 16 16 16 18 19
25 26 28 29 29 29 28 27 27 25 24 23 22 20 18 17 16 14 13 12 12 11 10 10 9 7 7 7 8 9 9 8 7 6 6 6 7 7 7 8 9 9 10 11 11 12 13 14 15 16 16 16 15 15 14 14 13 13 13 12 12 12 12 11 10 10 9 9 8 8 8 8 8 8 8 10 12 14 14 14 14 13 13 14 15
26 27 27 28 28 29 29 29 28 27 26 25 24 22 21 19 18 16 15 14 14 13 13 12 11 10 9 9 10 10 11 10 10 9 8 7 7 7 7 7 8 8 9 10 11 12 13 14 15 16 17 17 17 16 15 14 14 13 13 13 12 12 12 11 11 11 11 10 10 10 10 10 9 9 9 10 11 12 13 13 12 12 12 11 12
26 26 26 28 29 29 30 30 30 29 27 27 26 25 23 21 20 18 17 16 16 16 15 14 13 12 11 11 11 11 12 12 11 10 8 8 7 7 7 8 8 8 9 10 11 12 13 14 15 16 17 18 18 17 16 15 15 14 14 13 13 13 13 12 12 11 11 11 11 11 12 11 11 11 11 11 12 13 13 13 13 13 13 13 12
24 26 28 30 30 30 30 31 31 30 29 29 28 27 26 24 22 21 20 19 18 18 17 17 15 14 13 12 12 12 13 13 12 11 10 9 8 8 8 9 9 10 11 12 13 13 14 15 15 16 17 17 17 17 17 16 15 15 14 14 14 14 14 14 14 13 13 12 12 12 12 12 13 13 13 13 14 14 15 15 15 15 15 15 14
27 29 30 30 30 30 31 32 32 32 31 30 29 28 28 26 24 23 21 21 20 19 19 18 17 16 15 14 14 13 14 14 13 12 11 10 10 9 10 10 11 12 13 13 14 14 15 15 16 17 17 18 17 17 17 16 16 15 15 15 15 15 15 15 15 15 14 14 13 13 13 13 13 13 13 14 15 16 16 17 17 17 17 17 17
29 29 30 30 31 31 32 33 33 33 32 32 31 30 30 28 26 25 23 22 21 21 21 20 19 18 17 16 15 14 15 15 15 13 12 12 11 11 11 11 12 13 14 14 14 15 15 16 17 18 18 18 17 16 16 16 16 15 14 14 14 15 15 15 15 15 15 15 14 14 14 14 14 13 13 13 14 15 16 17 18 19 19 19 19
29 30 30 31 32 32 33 33 34 34 33 33 33 32 31 30 29 27 25 24 23 23 22 21 21 19 19 18 16 16 16 17 16 14 13 13 13 13 12 12 13 13 14 14 15 15 16 16 17 18 18 18 17 16 15 15 14 14 13 13 13 13 14 14 15 15 15 15 14 14 14 14 14 14 14 14 14 14 15 16 16 17 19 20 20
31 31 31 32 32 33 33 34 34 34 34 35 35 33 32 32 31 29 27 26 25 24 23 23 22 21 20 19 17 17 18 18 17 15 15 14 14 14 13 13 13 13 14 14 14 15 16 17 17 17 18 18 17 16 14 14 13 13 13 13 13 13 13 14 14 14 14 14 14 13 13 14 14 14 14 14 14 14 14 15 15 16 16 17 19
32 32 32 32 32 33 33 33 33 33 34 35 36 34 34 33 32 31 28 27 27 26 25 24 23 22 21 20 19 18 19 19 18 16 15 15 15 14 14 13 13 13 13 13 14 15 16 17 17 17 17 17 17 16 15 14 13 13 13 13 14 14 14 14 15 15 14 14 14 13 12 12 13 13 13 13 13 13 14 15 15 15 15 15 16
34 34 34 33 33 34 33 32 32 33 34 35 36 35 35 34 32 31 30 28 28 27 27 26 24 23 22 20 19 19 20 20 18 17 16 16 15 15 14 13 13 13 12 13 14 15 16 17 17 17 17 17 17 16 16 15 14 13 14 14 15 15 15 15 16 16 16 16 15 14 12 12 12 12 12 12 13 13 14 15 15 15 15 15 15
36 36 35 34 35 35 34 33 33 32 34 35 35 36 36 34 33 32 31 30 29 28 28 26 25 23 22 21 20 21 21 21 19 18 17 17 16 15 14 13 13 12 12 13 14 15 16 16 16 16 17 17 16 16 16 15 15 15 15 15 16 16 17 17 17 17 17 16 15 14 13 12 12 12 12 12 12 12 13 14 15 15 15 15 15
38 37 36 36 36 35 35 35 34 33 34 34 34 36 36 35 34 33 32 31 29 29 28 26 25 24 23 22 21 22 22 21 20 19 18 17 17 16 14 13 12 12 12 13 14 15 15 15 15 15 15 15 16 16 15 15 15 16 16 16 17 17 18 18 18 18 17 16 15 14 13 12 11 10 9 9 10 10 11 12 12 13 14 14 14
38 38 39 38 36 36 36 36 35 34 34 33 33 35 37 36 34 34 33 32 30 29 28 26 25 24 23 23 22 22 23 22 21 19 19 17 17 16 14 13 12 12 12 13 14 15 15 15 14 14 15 15 15 15 16 16 16 16 17 17 17 18 18 18 17 17 18 16 15 13 11 10 9 8 8 9 9 9 10 10 11 11 12 12 14
39 40 40 39 38 37 37 37 36 35 34 33 33 34 36 36 35 34 33 32 31 29 28 26 25 24 24 24 23 23 24 23 21 20 19 18 17 16 14 13 12 12 12 13 14 15 15 15 15 15 15 15 15 15 17 17 17 18 18 18 18 18 18 18 18 18 18 17 14 12 10 8 8 9 12 13 12 12 12 11 11 11 11 11 13
40 41 40 40 40 39 38 38 37 36 35 34 33 34 35 36 35 35 34 33 31 29 28 26 25 25 24 24 24 25 25 23 22 21 20 19 18 16 14 13 12 12 12 13 14 15 16 16 16 16 15 15 15 16 17 18 19 19 19 18 19 19 18 18 18 18 18 17 13 10 9 9 11 14 17 16 16 15 15 15 14 14 13 13 14
40 41 42 42 41 41 39 39 39 37 35 34 34 33 34 35 35 35 33 33 31 30 28 26 26 26 25 25 25 26 26 24 23 22 21 19 18 16 14 12 11 11 12 14 14 15 16 16 16 16 16 16 17 18 18 19 20 20 20 20 19 20 19 19 19 18 16 14 12 12 12 13 17 19 19 19 19 19 19 19 19 19 18 18 18
41 42 42 42 41 42 41 40 39 37 35 34 33 32 34 35 35 34 33 32 32 30 28 27 26 26 26 26 26 27 26 25 24 23 21 20 18 16 14 12 11 12 12 14 15 16 16 16 16 16 16 16 18 19 21 22 22 22 22 21 21 20 19 20 19 16 14 13 15 17 17 18 20 20 20 22 23 22 22 22 23 23 23 23 22
41 42 43 42 43 43 42 41 40 38 36 34 33 32 34 35 35 35 34 33 33 31 29 28 27 27 27 27 27 27 27 25 24 23 22 20 19 17 15 13 12 12 13 14 15 16 16 16 16 16 15 16 17 20 22 23 24 24 24 22 22 21 19 20 18 13 12 15 20 22 21 21 21 20 23 25 25 23 23 24 24 26 26 26 26
42 42 43 44 45 45 44 42 40 39 37 35 34 34 35 36 37 36 36 36 34 33 31 29 29 28 28 28 28 28 27 26 25 24 23 21 19 18 15 14 13 13 13 14 15 16 16 17 17 16 15 14 16 18 21 24 25 26 25 22 21 21 21 19 15 11 13 20 25 24 21 20 20 22 25 26 25 24 24 24 24 26 27 28 27
43 43 44 45 46 46 45 44 42 40 39 38 38 37 37 37 38 38 38 37 36 34 32 31 30 30 29 29 30 29 28 27 26 25 23 22 20 19 17 15 14 13 13 14 15 16 17 17 17 16 15 14 15 17 20 23 26 28 28 25 22 21 21 19 14 11 18 26 26 21 19 20 22 24 25 24 24 25 25 25 25 25 27 28 27
44 45 46 45 46 47 46 44 42 42 41 40 39 38 37 36 35 35 36 37 36 35 33 32 31 31 30 30 31 30 29 28 27 26 24 23 22 20 18 16 14 13 13 14 16 17 17 17 17 16 15 14 14 17 20 23 25 29 31 30 28 24 20 18 14 16 25 26 19 18 22 24 24 23 23 25 26 26 26 26 26 26 26 28 29
45 45 45 45 46 46 46 44 43 42 41 40 39 37 36 34 33 33 33 35 35 34 33 31 31 32 31 32 32 31 30 30 28 27 26 24 23 21 19 16 14 13 13 14 16 17 17 17 18 16 15 14 14 15 18 22 25 26 27 28 30 30 26 21 22 25 26 21 17 22 26 25 24 24 25 27 27 27 28 30 30 29 30 32 33
45 45 45 45 46 46 45 44 43 42 41 40 39 37 35 34 34 33 33 33 33 33 33 33 33 33 33 33 33 32 31 31 29 28 27 26 24 22 20 17 15 14 14 15 16 17 17 18 18 17 15 15 14 15 16 19 22 24 23 22 22 23 22 27 35 32 22 21 25 27 27 26 26 27 28 28 28 29 31 33 34 34 35 36 35
45 45 45 45 45 45 45 44 42 41 41 40 39 38 37 36 36 36 36 35 35 34 36 37 36 35 35 34 33 33 32 32 31 30 29 28 26 23 21 18 16 15 14 15 16 17 17 18 18 17 16 15 15 16 17 18 20 20 19 17 13 12 17 28 37 32 26 28 32 30 29 31 31 30 29 29 30 31 33 34 35 36 37 37 37
45 44 44 44 44 44 43 43 42 41 41 40 40 39 38 39 39 40 41 41 40 41 41 40 38 37 36 35 34 34 33 33 32 31 31 29 27 24 22 19 17 15 15 15 17 17 18 19 19 17 16 16 16 17 17 18 20 18 16 13 11 13 20 26 27 30 35 36 33 33 34 34 33 33 32 32 33 34 34 35 36 37 37 38 38
43 43 42 42 42 42 42 42 41 41 41 40 40 40 40 40 41 42 42 42 42 42 40 39 37 35 35 35 35 35 35 34 34 33 32 30 28 25 23 20 18 16 16 16 17 18 18 19 19 18 17 17 18 18 19 20 19 17 15 13 13 13 17 20 21 27 35 37 36 36 36 35 35 37 36 36 37 37 37 37 38 39 40 39 39
41 42 42 41 41 41 41 40 40 40 40 40 40 40 40 41 41 42 42 42 41 39 37 36 35 35 35 35 36 37 36 36 35 35 33 31 29 27 24 21 19 17 16 17 17 18 18 20 19 18 17 18 19 20 20 21 20 17 15 14 14 13 14 16 18 21 27 36 40 37 35 37 37 38 39 39 39 38 39 40 40 41 42 41 41
40 40 39 39 40 40 39 40 40 40 40 40 40 40 40 41 41 42 41 41 40 39 37 36 35 36 36 37 38 38 38 37 37 36 35 33 30 28 25 22 20 18 18 17 18 18 19 20 19 18 18 18 19 21 21 21 19 17 16 15 15 15 15 15 16 18 22 31 38 37 38 42 42 40 40 41 42 41 41 43 43 43 42 42 42
38 38 37 38 38 39 40 40 40 39 39 39 40 40 41 41 41 41 40 39 39 39 39 38 37 37 37 39 40 39 39 38 38 37 36 34 32 29 26 23 21 19 18 18 18 18 20 20 20 19 19 19 20 22 22 21 19 16 15 15 16 16 17 18 17 19 21 26 35 40 42 45 47 48 45 43 44 44 44 44 44 43 43 42 41
37 37 37 37 38 38 39 39 39 39 39 39 39 40 40 41 40 39 38 38 38 38 39 40 40 40 40 41 41 40 39 38 38 38 37 35 33 30 26 23 22 20 19 18 18 19 20 20 20 19 19 20 21 22 22 20 18 16 14 14 15 15 17 19 19 20 23 26 33 43 46 46 50 52 49 48 48 46 45 45 44 44 43 42 42
Wind_Direction
190 191 195 198 203 204 203 197 188 186 175 166 159 153 153 159 169 174 180 176 170 168 158 126 115 133 106 80 17 322 297 302 299 305 333 325 324 329 332 336 334 338 342 347 348 345 341 339 347 351 354 356 354 353 355 359 8 7 2 360 357 352 346 340 338 340 344 348 352 356 354 343 321 305 300 308 316 322 330 322 317 321 323 324 325
188 187 192 198 203 203 204 198 190 185 175 170 164 159 151 145 138 132 138 142 149 148 146 118 114 114 89 55 353 343 325 321 323 327 1 354 347 339 330 332 329 325 322 328 330 331 331 331 334 336 340 341 343 353 355 353 353 350 345 344 346 345 346 345 342 343 345 349 353 357 360 352 330 309 302 309 316 314 320 328 328 324 321 319 314
186 189 193 197 202 204 206 199 191 182 175 173 166 164 159 156 151 149 146 139 144 133 130 111 105 83 49 8 356 353 340 347 355 354 7 4 3 359 352 348 344 340 328 324 325 327 327 327 327 328 331 328 330 341 343 337 336 337 336 335 340 346 347 348 344 342 345 350 355 359 3 356 337 312 305 311 310 304 311 325 336 328 320 314 306
185 191 195 199 204 206 206 196 193 188 184 185 180 181 182 191 194 197 197 198 199 200 224 249 259 277 313 310 317 319 319 323 331 329 332 336 343 348 348 345 342 343 338 332 328 328 329 328 325 325 324 322 321 324 326 326 329 330 331 332 335 342 346 349 345 341 340 345 353 359 0 348 334 318 312 313 297 292 304 315 318 320 324 319 301
184 191 195 201 205 207 203 195 192 189 189 192 194 197 201 209 214 218 219 224 228 232 239 245 249 253 260 265 273 279 288 295 304 306 309 314 315 318 322 324 321 318 320 325 325 324 328 331 330 326 322 322 320 319 321 324 328 328 328 328 330 335 340 342 342 343 338 338 344 351 350 333 326 326 326 322 304 293 296 300 302 307 318 323 314
186 191 194 198 203 203 201 197 191 186 183 184 186 193 194 196 205 211 213 217 218 225 234 239 242 246 250 251 256 262 268 275 281 284 288 291 293 295 299 301 299 295 293 296 297 295 298 304 307 307 309 313 314 314 317 321 324 323 323 324 326 328 331 336 339 343 341 339 336 337 337 327 328 328 327 326 315 305 296 293 294 295 301 313 320
190 190 193 196 199 198 197 192 186 184 182 186 191 199 203 201 205 210 209 205 201 212 224 233 240 242 246 248 253 261 266 271 274 278 282 283 286 289 291 291 287 283 279 275 275 278 282 285 288 292 298 301 303 305 307 308 311 311 313 316 319 320 323 328 333 337 337 339 335 333 329 320 321 323 322 325 319 309 302 299 295 294 297 303 309
196 191 190 193 195 193 191 186 186 189 193 200 205 208 211 209 206 208 205 197 194 194 199 214 223 224 229 244 258 268 273 278 280 282 283 284 286 287 288 286 282 279 275 272 271 274 277 278 281 284 287 290 291 292 293 294 298 300 302 305 307 310 313 316 319 323 324 325 327 328 324 315 311 312 313 317 314 302 301 310 310 307 303 301 302
204 196 188 190 194 191 187 188 192 196 199 197 196 194 188 187 183 180 177 171 162 158 170 186 194 202 208 224 249 262 271 276 280 283 283 282 281 279 279 277 276 275 273 273 273 274 274 274 275 275 276 277 279 280 283 286 288 291 294 296 298 300 302 304 306 309 311 312 317 318 315 311 308 307 303 303 304 298 301 312 322 321 313 307 304
208 202 193 192 195 193 191 193 198 199 194 183 180 177 174 173 168 165 159 154 150 155 161 165 172 181 198 214 231 245 256 261 269 271 274 276 275 273 271 269 268 268 270 270 272 273 273 273 274 273 274 273 275 276 277 280 282 285 287 289 291 293 294 295 295 297 301 303 306 308 307 307 306 301 296 296 296 296 299 305 311 314 313 313 311
210 206 196 196 197 197 196 198 201 199 187 179 176 174 174 171 167 164 161 160 160 166 169 170 181 185 197 214 234 249 259 263 269 269 272 272 271 271 268 267 265 265 266 267 268 269 270 271 272 273 273 274 274 276 277 278 279 281 283 285 286 287 287 287 288 288 289 291 293 296 298 299 302 300 295 295 293 292 294 298 302 303 304 307 309
212 204 197 200 201 201 201 202 203 198 190 183 180 177 174 170 168 166 164 166 168 171 174 176 175 181 186 203 241 265 284 289 290 288 285 281 277 275 271 271 269 270 270 271 273 274 276 276 277 279 279 281 281 281 282 281 281 281 281 282 283 284 284 284 284 284 284 283 283 284 286 288 292 295 294 294 290 289 293 295 296 296 296 299 302
215 203 199 203 204 205 205 206 205 200 195 188 185 179 174 169 165 163 163 163 165 165 166 167 159 154 142 139 197 314 315 313 312 307 302 299 295 292 289 291 290 293 293 295 300 302 306 306 303 301 300 298 297 296 294 293 292 290 287 285 284 282 282 282 282 282 283 282 282 281 280 281 282 284 286 287 284 285 291 295 296 295 294 295 297
220 210 204 207 207 210 209 210 209 205 199 194 189 181 176 169 162 158 158 158 158 157 154 149 140 124 92 78 48 35 10 2 347 336 323 315 310 314 320 332 345 358 5 9 10 14 12 10 4 356 349 340 333 327 322 320 318 314 309 303 297 291 285 282 281 280 279 280 281 282 281 281 282 282 282 280 278 279 284 290 295 295 295 294 294
222 216 212 213 213 214 214 214 212 209 204 199 193 187 183 172 165 159 158 158 157 156 152 144 132 100 60 42 31 31 25 24 17 12 4 2 18 35 55 59 57 53 45 39 30 26 20 16 11 6 1 355 352 346 343 341 341 340 336 334 327 316 306 298 290 281 276 273 273 275 278 280 281 283 284 282 280 279 280 283 286 287 289 291 293
222 217 217 218 217 218 217 216 214 211 208 204 200 194 191 182 173 167 163 162 162 161 159 154 142 87 31 15 10 15 21 30 37 43 55 61 65 65 67 61 58 52 43 36 25 18 10 6 2 359 357 353 349 346 344 343 342 344 345 345 343 334 327 325 318 301 287 275 268 265 266 269 272 276 279 276 273 275 280 283 281 277 278 282 289
225 220 220 222 221 221 219 217 215 211 208 207 203 199 198 193 182 175 170 167 168 169 170 171 163 114 4 356 350 354 7 25 43 67 80 88 84 68 57 44 35 29 23 19 14 8 3 359 358 354 352 350 347 344 341 341 340 341 343 342 342 340 337 338 336 329 317 297 279 268 261 259 256 254 256 259 264 273 280 283 281 274 272 271 275
230 225 224 226 225 224 222 219 217 212 210 208 204 201 201 200 191 182 177 174 175 176 179 182 183 236 339 337 333 336 346 12 44 70 78 77 66 43 26 20 14 11 7 6 4 1 360 357 355 352 349 348 344 343 340 339 338 336 337 336 337 338 338 341 340 338 334 324 307 285 268 257 250 250 252 253 259 267 270 274 278 278 278 274 269
234 231 229 230 229 227 226 223 220 216 214 212 209 204 204 206 200 189 183 180 180 182 186 189 210 285 318 321 321 323 328 338 25 49 53 40 25 17 11 8 2 360 358 356 356 355 356 353 352 350 347 346 344 342 339 336 333 330 330 329 330 332 331 333 334 333 333 329 323 309 285 267 257 256 256 252 251 255 258 262 270 276 279 278 276
234 234 232 232 232 231 229 226 224 220 217 215 213 209 207 211 207 197 190 189 187 189 194 205 235 272 297 312 317 311 312 310 322 341 348 357 354 354 351 349 347 347 348 348 350 349 349 348 346 345 342 340 338 335 332 328 325 324 324 324 323 323 321 319 320 320 323 324 322 314 297 282 268 259 254 251 250 252 257 261 266 269 273 275 276
233 233 233 233 233 232 231 229 226 223 220 217 216 213 210 213 213 205 197 196 198 199 206 219 239 263 289 302 302 296 293 293 296 303 311 319 325 332 335 337 339 338 339 339 340 340 339 339 337 335 333 331 329 327 325 323 322 321 320 320 320 318 316 315 315 315 316 316 313 307 298 290 281 271 263 259 257 258 263 270 274 275 276 276 276
233 233 233 233 233 233 232 230 228 225 222 220 219 216 214 214 215 212 205 204 206 209 216 227 242 259 279 289 288 285 283 282 282 285 292 302 311 320 325 326 327 325 324 324 326 328 327 327 326 325 325 323 323 321 320 318 318 318 318 319 319 318 318 318 318 318 316 313 310 306 302 298 292 286 276 270 268 270 275 279 283 286 287 284 283
235 235 236 237 235 233 232 231 230 228 224 223 222 219 217 217 217 215 212 210 212 215 222 230 240 253 267 280 283 282 279 276 274 276 282 292 300 304 308 308 309 310 308 310 312 314 316 317 318 318 318 319 319 318 316 314 312 312 312 313 313 314 315 315 317 317 318 316 314 309 305 303 299 296 289 283 279 278 282 286 289 293 295 295 293
243 243 242 240 238 235 234 232 231 230 226 225 224 222 220 219 218 217 216 214 215 217 222 230 237 246 258 269 275 275 272 269 267 268 273 278 285 288 292 294 294 296 296 300 302 305 308 310 311 313 314 315 316 316 315 313 312 311 310 310 309 309 310 310 311 313 315 315 315 313 311 309 306 304 301 297 293 291 291 293 295 296 298 300 299
249 245 243 241 241 239 236 234 233 232 229 228 227 225 222 220 220 218 218 216 217 219 222 229 235 242 250 259 265 266 264 262 260 260 264 268 273 278 280 282 284 287 290 294 296 299 302 304 306 308 311 313 315 315 314 313 313 313 314 314 314 314 313 313 312 311 311 311 312 312 312 312 311 310 308 305 302 300 300 299 298 299 300 300 300
243 240 241 242 242 241 239 237 236 235 233 231 230 228 224 223 222 220 220 219 219 220 223 229 234 240 246 254 259 261 260 257 255 256 259 264 267 271 273 276 280 284 288 290 292 295 297 300 303 307 311 315 317 318 317 317 316 316 316 317 318 319 318 317 316 314 313 312 311 310 309 308 308 306 306 305 304 303 302 302 301 301 301 300 300
244 243 241 241 241 240 239 238 237 236 235 234 232 230 228 225 224 222 222 222 221 221 224 229 234 240 246 252 256 257 256 253 252 253 257 262 265 268 271 274 278 282 284 287 289 292 295 299 303 308 313 317 320 320 320 320 318 318 318 319 320 320 319 318 318 317 316 316 314 312 309 306 304 303 301 299 298 298 298 298 299 299 300 300 300
248 246 242 240 240 239 238 238 237 237 235 234 234 232 231 228 226 225 223 223 223 223 225 229 235 240 245 250 253 253 252 250 248 251 256 260 263 265 268 272 276 279 281 284 288 293 297 302 307 312 317 321 322 323 322 320 318 318 317 318 319 319 319 317 316 315 316 316 314 314 312 310 307 304 301 298 294 292 292 291 291 291 292 294 295
246 245 243 241 241 240 239 239 238 237 235 234 234 233 232 230 228 227 225 224 224 224 226 230 235 240 245 248 250 249 247 246 246 249 254 257 260 263 266 270 273 276 279 284 289 295 301 305 311 316 320 323 324 325 324 322 321 320 320 320 321 322 320 318 315 313 313 313 311 311 311 309 306 303 300 298 296 293 291 289 287 286 285 287 288
246 245 243 243 243 242 240 240 239 238 236 234 233 232 232 231 230 228 226 226 226 226 227 230 235 239 243 245 245 245 243 242 244 248 252 255 258 260 264 266 269 274 279 285 291 297 302 306 310 314 318 323 325 326 326 326 325 325 326 325 325 327 326 324 321 317 315 313 311 310 310 308 303 299 296 295 294 293 291 289 288 288 287 286 285
245 243 243 244 243 243 242 240 239 237 237 234 232 232 232 232 231 229 227 227 227 227 228 230 234 238 241 242 242 240 239 240 242 247 250 254 257 259 262 263 267 273 280 287 293 298 301 305 310 315 320 325 328 329 329 329 329 331 332 330 330 330 331 331 329 325 321 318 317 316 315 313 307 302 299 297 296 294 293 291 290 290 290 289 288
244 243 243 242 242 243 243 242 239 237 236 234 232 231 232 232 230 229 228 228 228 228 229 230 233 237 239 239 239 236 236 238 241 245 248 253 256 257 259 261 266 274 281 288 293 297 301 306 313 320 325 328 331 331 331 330 331 334 335 334 333 332 334 336 335 330 325 323 322 320 319 319 316 311 306 301 297 294 291 290 288 288 288 289 291
246 245 242 241 242 243 243 243 241 238 236 235 232 231 231 231 230 229 228 229 228 229 230 230 232 235 237 237 235 235 234 237 240 243 247 251 253 254 255 257 263 272 281 288 293 297 302 309 316 323 327 331 332 329 328 329 331 333 333 334 334 333 336 338 337 332 326 324 321 319 323 325 323 319 313 307 300 297 293 290 289 289 289 290 291
246 243 241 241 241 242 243 243 242 239 237 234 231 230 230 230 229 229 228 229 230 230 231 231 232 233 235 235 233 234 234 236 239 242 245 247 249 249 250 253 262 271 281 290 295 300 306 312 317 323 328 332 331 327 326 328 330 331 331 332 332 332 334 336 335 330 324 323 321 325 333 334 335 339 337 330 321 316 311 305 302 301 298 296 296
244 242 242 242 239 240 241 242 242 240 237 234 232 230 229 229 229 229 228 229 230 231 232 232 232 232 233 233 233 233 233 236 238 241 243 244 245 245 246 251 261 273 285 294 300 306 310 313 316 320 327 330 329 328 328 329 330 330 331 331 331 331 333 335 333 327 325 326 328 335 346 345 345 343 338 335 333 331 327 321 317 314 313 312 309
245 244 242 239 238 238 239 241 241 239 238 234 232 230 228 228 229 229 229 229 230 231 233 233 233 233 232 233 233 233 233 235 237 240 241 241 242 242 244 251 261 277 289 297 304 307 310 313 315 318 323 326 328 331 331 330 329 329 330 330 332 333 334 335 333 330 330 333 339 346 352 346 337 334 333 334 336 336 334 331 328 326 324 324 322
247 244 240 238 237 237 237 239 240 239 237 234 231 229 228 228 229 229 228 229 231 232 233 233 233 233 232 232 232 232 233 234 236 238 239 239 240 240 243 249 262 278 289 297 303 305 307 309 313 317 321 326 331 332 332 330 329 329 329 331 333 334 336 336 336 335 335 340 347 345 341 334 328 330 333 337 337 336 335 333 332 331 330 329 328
245 243 240 238 237 236 235 236 237 236 236 234 231 228 227 227 228 228 228 229 230 231 233 233 233 233 233 232 231 232 232 233 235 237 237 236 237 238 241 248 262 276 286 295 300 302 304 307 311 317 323 330 334 333 331 330 331 330 330 333 335 335 337 337 337 339 339 342 342 336 331 326 325 330 334 334 334 334 334 334 333 332 332 331 329
242 240 237 235 234 234 233 234 234 233 233 232 230 227 226 226 226 226 226 227 228 229 231 232 232 232 232 232 231 231 232 233 235 235 234 234 234 236 239 248 260 272 283 293 299 301 303 306 311 317 325 334 336 333 330 330 332 332 331 332 334 336 337 338 340 339 337 338 336 333 330 328 330 334 334 332 331 331 331 331 330 328 328 329 327
239 237 234 231 231 231 230 231 231 232 231 229 227 224 223 223 223 224 224 225 226 228 231 232 232 231 231 231 231 231 232 233 233 233 232 231 232 234 239 247 257 269 281 293 299 299 301 305 309 315 324 333 334 330 329 330 332 330 328 329 333 336 336 339 340 334 334 337 334 331 330 331 333 332 330 329 327 326 327 326 325 322 320 322 322
234 233 231 230 230 230 229 229 230 231 231 229 227 224 223 222 223 225 225 226 227 229 230 231 232 231 230 230 230 231 231 232 232 231 230 229 231 234 239 247 257 268 282 293 298 298 299 304 309 314 320 328 332 330 329 332 332 330 328 327 330 333 337 341 340 333 333 331 328 329 332 331 327 326 326 325 323 322 322 321 318 313 312 315 318
231 230 230 230 230 229 229 229 229 231 231 232 230 228 228 228 229 229 228 229 230 232 233 234 234 232 230 229 230 231 230 230 230 229 228 229 232 236 241 248 256 268 281 292 297 297 299 303 306 310 315 324 332 332 331 333 335 335 333 330 329 328 333 341 335 328 328 324 325 330 330 327 323 323 322 320 320 319 318 316 313 311 310 315 319
232 230 229 228 228 227 227 228 229 231 232 233 232 231 231 232 232 232 231 232 232 234 235 236 236 232 230 229 229 230 229 229 229 229 229 230 234 237 242 248 255 267 280 291 296 296 297 300 302 304 311 320 329 331 331 332 332 334 336 334 334 331 331 335 327 324 325 319 322 326 323 323 321 319 318 316 316 315 315 316 315 315 315 317 319
229 227 227 227 227 227 227 227 229 232 233 233 233 232 230 230 230 230 232 233 234 234 233 233 233 231 230 228 229 229 228 229 229 229 229 231 234 237 242 247 254 266 278 289 294 294 295 296 299 302 309 317 323 325 326 328 328 331 335 336 338 334 329 329 325 324 327 320 320 322 320 321 320 318 316 315 314 313 313 315 316 317 316 316 317
226 226 227 228 228 228 229 229 230 232 233 233 231 229 227 225 225 224 225 227 228 229 229 228 228 228 229 229 230 229 228 229 229 229 230 231 235 237 241 246 253 264 275 286 292 292 292 293 297 301 308 313 316 318 320 323 324 326 332 332 332 323 314 322 324 320 320 318 317 321 322 323 322 320 318 316 315 314 314 315 315 315 314 315 315
227 228 229 230 230 230 230 230 231 232 232 231 229 227 226 224 223 222 222 222 223 226 229 230 230 231 231 229 229 230 229 229 228 229 230 231 235 238 241 245 251 260 271 283 289 289 289 290 294 299 304 308 309 312 315 318 320 319 323 322 314 302 302 314 317 311 315 317 316 319 322 322 321 320 319 318 317 316 315 315 314 313 313 314 315
228 227 228 229 230 230 230 230 230 231 231 230 228 227 226 225 226 227 228 229 230 232 235 236 237 236 234 231 230 230 229 229 228 229 230 232 235 238 240 243 249 257 267 279 284 285 285 286 291 296 300 302 304 307 311 313 315 315 318 316 309 300 296 301 301 302 309 312 314 319 320 319 320 320 320 319 317 317 316 315 314 313 313 314 314
227 224 225 226 228 229 230 230 230 231 230 229 228 227 227 227 227 229 231 235 238 241 241 241 240 238 235 233 232 231 229 228 228 229 230 232 235 237 239 242 248 255 264 274 279 281 281 283 288 293 296 299 301 305 309 310 310 312 316 316 313 310 303 301 302 300 300 302 308 316 318 317 317 317 317 317 316 317 316 315 313 313 313 314 315
225 224 225 226 227 228 228 229 229 230 229 229 228 228 228 229 229 230 232 235 238 241 242 242 241 238 235 232 231 230 229 228 228 229 230 233 235 237 238 241 246 253 261 270 275 278 279 281 286 290 293 296 300 303 306 305 306 311 315 316 317 316 312 312 314 310 303 301 305 312 317 317 316 315 314 315 315 315 314 313 313 313 313 314 314
225 224 226 225 226 226 227 227 228 228 229 228 228 228 229 229 229 231 233 234 235 237 237 237 237 237 234 232 230 229 229 228 228 229 230 232 234 236 237 240 245 251 260 268 273 276 277 279 283 287 290 294 297 301 302 302 304 308 313 315 318 319 317 319 322 319 315 310 308 311 316 318 317 316 315 314 313 313 312 311 312 312 313 314 315
224 223 224 225 225 226 225 226 226 227 228 228 228 229 229 229 229 230 231 232 233 234 235 234 234 234 233 231 230 229 229 228 229 230 231 232 233 234 236 239 244 251 259 265 270 274 275 278 282 285 289 292 295 297 298 299 302 307 311 313 315 318 319 321 325 323 320 318 314 313 317 319 316 314 315 314 312 311 311 311 311 312 313 314 315